Voltar ao catálogo

STARLINK-6049

AtivoComunicaçõesVLEO
NORAD 56796·PAYLOAD·🇺🇸 United States

Lançado May 31, 2023 de Vandenberg Space Force Base

Loading…

Próximas Passagens (próximas 24 horas)

TLE

AtualizadoSource: CelesTrak SupGP

Época: Sep 14, 2026, 14:44 UTC

1 56796C 23078AF  26257.61437500 -.00037871  00000+0 -31741-2 0  2573
2 56796  70.0011 228.2060 0003667 267.4653 207.1860 14.98343097    12

Acompanhe STARLINK-6049 em tempo real com AllMySat

Download on the App Store